Delaware, OH

9:42 AM EDT on September 20, 2017 (GMT -0400)
Delaware Municipal

Weather History for KDLZ - March, 2013

Change the Weather History Date:

Saturday, March 2, 2013

  Actual Average Record
Temperature  
Mean Temperature 26 °F -  
Max Temperature 28 °F 44 °F 64 °F (1965)
Min Temperature 24 °F 23 °F -3 °F (1978)
Degree Days  
Heating Degree Days 39    
Moisture  
Dew Point 21 °F    
Average Humidity 80    
Maximum Humidity 86    
Minimum Humidity 74    
Precipitation  
Precipitation 0.00 in - - ()
Sea Level Pressure  
Sea Level Pressure 30.02 in    
Wind  
Wind Speed 9 mph (NNW)    
Max Wind Speed 13 mph    
Max Gust Speed 18 mph    
Visibility 8 miles    
Events Snow    
Averages and records for this station are not official NWS values.
T = Trace of Precipitation, MM = Missing Value Source: NWS Daily Summary

Daily Weather History Graph

Daily Weather History Graph

Search for Another Location

Airport or City:

Trip Planner

Search our weather history database for the weather conditions in past years. The results will help you decide how hot, cold, wet, or windy it might be!

Date:

Astronomy

Mar. 02, 2013 Rise Set
Actual Time 7:04 AM EST 6:25 PM EST
Civil Twilight 6:36 AM EST 6:52 PM EST
Nautical Twilight 6:05 AM EST 7:24 PM EST
Astronomical Twilight 5:33 AM EST 7:55 PM EST
Moon No Moon Rise 9:30 AM EST (3/2)
Length of Visible Light 12h 15m
Length of Day
11h 21m
Waning Gibbous, 74% of the Moon is Illuminated
Mar 2
Waning Gibbous
Mar 4
Last Quarter
Mar 11
New
Mar 19
First Quarter
Mar 27
Full

Hourly Weather History & Observations

Time (EST) Temp. Windchill Dew Point Humidity Pressure Visibility Wind Dir Wind Speed Gust Speed Precip Events Conditions
12:13 AM 26.6 °F 16.2 °F 23.0 °F 86% 30.02 in 10.0 mi North 11.5 mph - N/A   Overcast
12:34 AM 26.6 °F 17.5 °F 23.0 °F 86% 30.02 in 10.0 mi North 9.2 mph - N/A   Overcast
12:53 AM 26.6 °F 16.2 °F 21.2 °F 80% 30.02 in 10.0 mi NNE 11.5 mph 18.4 mph N/A   Overcast
1:13 AM 26.6 °F 17.5 °F 21.2 °F 80% 30.02 in 10.0 mi North 9.2 mph - N/A   Overcast
1:34 AM 26.6 °F 18.2 °F 21.2 °F 80% 30.03 in 10.0 mi NNE 8.1 mph - N/A   Overcast
1:53 AM 26.6 °F 18.2 °F 21.2 °F 80% 30.03 in 10.0 mi North 8.1 mph - N/A   Overcast
2:14 AM 26.6 °F 19.1 °F 19.4 °F 74% 30.03 in 10.0 mi North 6.9 mph - N/A Snow Light Snow
2:34 AM 26.6 °F 19.1 °F 21.2 °F 80% 30.02 in 10.0 mi NNW 6.9 mph - N/A Snow Light Snow
2:53 AM 26.6 °F 20.0 °F 21.2 °F 80% 30.02 in 7.0 mi NNW 5.8 mph - N/A Snow Light Snow
3:14 AM 26.6 °F 20.0 °F 21.2 °F 80% 30.01 in 7.0 mi NNW 5.8 mph - N/A Snow Light Snow
3:34 AM 26.6 °F 18.2 °F 21.2 °F 80% 30.00 in 7.0 mi NNW 8.1 mph - N/A Snow Light Snow
3:53 AM 26.6 °F 20.0 °F 21.2 °F 80% 30.00 in 7.0 mi NNW 5.8 mph - N/A Snow Light Snow
4:14 AM 26.6 °F 16.8 °F 21.2 °F 80% 29.99 in 10.0 mi NNW 10.4 mph - N/A Snow Light Snow
4:33 AM 26.6 °F 18.2 °F 21.2 °F 80% 29.99 in 10.0 mi NNW 8.1 mph - N/A Snow Light Snow
4:54 AM 26.6 °F 17.5 °F 21.2 °F 80% 29.99 in 10.0 mi NNW 9.2 mph - N/A Snow Light Snow
5:14 AM 26.6 °F 19.1 °F 21.2 °F 80% 30.00 in 10.0 mi NNW 6.9 mph - N/A Snow Light Snow
5:33 AM 26.6 °F 16.8 °F 21.2 °F 80% 30.00 in 10.0 mi NNW 10.4 mph - N/A Snow Light Snow
6:14 AM 26.6 °F 18.2 °F 21.2 °F 80% 30.00 in 10.0 mi NNW 8.1 mph - N/A Snow Light Snow
6:54 AM 24.8 °F 16.1 °F 21.2 °F 86% 30.01 in 7.0 mi NNW 8.1 mph - N/A Snow Light Snow
7:14 AM 24.8 °F 16.9 °F 21.2 °F 86% 30.01 in 10.0 mi NNW 6.9 mph - N/A Snow Light Snow
7:33 AM 26.6 °F 19.1 °F 21.2 °F 80% 30.01 in 7.0 mi NNW 6.9 mph - N/A Snow Light Snow
7:54 AM 24.8 °F 14.6 °F 21.2 °F 86% 30.02 in 5.0 mi NNW 10.4 mph - N/A Snow Light Snow
8:14 AM 26.6 °F 17.5 °F 21.2 °F 80% 30.02 in 3.0 mi NNW 9.2 mph - N/A Snow Light Snow
8:54 AM 26.6 °F 16.8 °F 21.2 °F 80% 30.02 in 2.5 mi NNW 10.4 mph - N/A Snow Light Snow
9:13 AM 26.6 °F 16.8 °F 21.2 °F 80% 30.02 in 3.0 mi NNW 10.4 mph - N/A Snow Light Snow
9:33 AM 26.6 °F 18.2 °F 21.2 °F 80% 30.02 in 7.0 mi NW 8.1 mph - N/A Snow Light Snow
9:54 AM 26.6 °F 16.8 °F 21.2 °F 80% 30.02 in 5.0 mi NNW 10.4 mph - N/A Snow Light Snow
10:13 AM 26.6 °F 16.2 °F 21.2 °F 80% 30.02 in 5.0 mi NNW 11.5 mph - N/A Snow Light Snow
10:33 AM 26.6 °F 18.2 °F 21.2 °F 80% 30.01 in 7.0 mi NNW 8.1 mph - N/A Snow Light Snow
10:54 AM 26.6 °F 17.5 °F 21.2 °F 80% 30.02 in 7.0 mi NNW 9.2 mph - N/A Snow Light Snow
11:13 AM 26.6 °F 16.2 °F 21.2 °F 80% 30.02 in 5.0 mi NNW 11.5 mph - N/A Snow Light Snow
11:34 AM 28.4 °F 18.0 °F 21.2 °F 74% 30.02 in 7.0 mi NNW 12.7 mph - N/A Snow Light Snow
11:54 AM 26.6 °F 16.8 °F 21.2 °F 80% 30.02 in 10.0 mi NNW 10.4 mph - N/A Snow Light Snow
12:13 PM 28.4 °F 19.1 °F 21.2 °F 74% 30.02 in 10.0 mi NNW 10.4 mph - N/A   Overcast
12:33 PM 26.6 °F 16.2 °F 21.2 °F 80% 30.02 in 10.0 mi NNW 11.5 mph - N/A Snow Light Snow
12:54 PM 26.6 °F 18.2 °F 21.2 °F 80% 30.01 in 5.0 mi NNW 8.1 mph - N/A Snow Light Snow
1:13 PM 28.4 °F 19.7 °F 21.2 °F 74% 30.00 in 10.0 mi North 9.2 mph - N/A Snow Light Snow
1:34 PM 28.4 °F 19.1 °F 21.2 °F 74% 30.00 in 7.0 mi NW 10.4 mph - N/A Snow Light Snow
1:54 PM 28.4 °F 19.1 °F 21.2 °F 74% 30.00 in 7.0 mi NW 10.4 mph - N/A Snow Light Snow
2:13 PM 28.4 °F 19.7 °F 21.2 °F 74% 30.00 in 7.0 mi NNW 9.2 mph - N/A Snow Light Snow
2:34 PM 28.4 °F 18.5 °F 21.2 °F 74% 30.00 in 10.0 mi NW 11.5 mph - N/A Snow Light Snow
2:54 PM 28.4 °F 19.7 °F 21.2 °F 74% 30.00 in 5.0 mi NNW 9.2 mph - N/A Snow Light Snow
3:13 PM 28.4 °F 19.7 °F 23.0 °F 80% 29.99 in 5.0 mi NNW 9.2 mph - N/A Snow Light Snow
3:34 PM 28.4 °F 18.5 °F 23.0 °F 80% 29.99 in 7.0 mi NW 11.5 mph 18.4 mph N/A Snow Light Snow
3:53 PM 28.4 °F 19.1 °F 23.0 °F 80% 30.00 in 3.0 mi NNW 10.4 mph - N/A Snow Light Snow
4:13 PM 26.6 °F 17.5 °F 23.0 °F 86% 30.00 in 2.5 mi NW 9.2 mph - N/A Snow Light Snow
4:34 PM 26.6 °F 17.5 °F 23.0 °F 86% 30.00 in 4.0 mi NW 9.2 mph - N/A Snow Light Snow
4:53 PM 26.6 °F 17.5 °F 23.0 °F 86% 30.00 in 7.0 mi NW 9.2 mph 17.3 mph N/A Snow Light Snow
5:13 PM 26.6 °F 18.2 °F 21.2 °F 80% 30.00 in 4.0 mi NNW 8.1 mph - N/A Snow Light Snow
5:34 PM 26.6 °F 16.8 °F 21.2 °F 80% 30.01 in 5.0 mi NNW 10.4 mph - N/A Snow Light Snow
5:53 PM 26.6 °F 17.5 °F 23.0 °F 86% 30.01 in 2.5 mi NW 9.2 mph - N/A Snow Light Snow
6:13 PM 26.6 °F 18.2 °F 23.0 °F 86% 30.02 in 4.0 mi NW 8.1 mph - N/A Snow Light Snow
6:53 PM 26.6 °F 18.2 °F 23.0 °F 86% 30.03 in 3.0 mi NW 8.1 mph - N/A Snow Light Snow
7:13 PM 26.6 °F 19.1 °F 23.0 °F 86% 30.03 in 5.0 mi NW 6.9 mph - N/A Snow Light Snow
7:34 PM 26.6 °F 20.0 °F 21.2 °F 80% 30.03 in 7.0 mi NNW 5.8 mph - N/A Snow Light Snow
7:53 PM 26.6 °F 19.1 °F 21.2 °F 80% 30.03 in 10.0 mi NNW 6.9 mph - N/A Snow Light Snow
8:13 PM 26.6 °F 19.1 °F 21.2 °F 80% 30.03 in 7.0 mi NW 6.9 mph - N/A Snow Light Snow
8:34 PM 26.6 °F 19.1 °F 21.2 °F 80% 30.04 in 10.0 mi NW 6.9 mph - N/A Snow Light Snow
8:53 PM 26.6 °F 17.5 °F 21.2 °F 80% 30.04 in 7.0 mi WNW 9.2 mph - N/A Snow Light Snow
9:13 PM 26.6 °F 17.5 °F 21.2 °F 80% 30.04 in 7.0 mi NW 9.2 mph - N/A Snow Light Snow
9:34 PM 26.6 °F 20.0 °F 21.2 °F 80% 30.04 in 10.0 mi NW 5.8 mph - N/A Snow Light Snow
9:53 PM 26.6 °F 17.5 °F 21.2 °F 80% 30.04 in 10.0 mi NW 9.2 mph - N/A Snow Light Snow
10:14 PM 26.6 °F 18.2 °F 19.4 °F 74% 30.03 in 10.0 mi NW 8.1 mph - N/A   Overcast
10:34 PM 26.6 °F 17.5 °F 19.4 °F 74% 30.03 in 10.0 mi NW 9.2 mph - N/A   Overcast
10:53 PM 26.6 °F 18.2 °F 19.4 °F 74% 30.03 in 10.0 mi NW 8.1 mph - N/A Snow Light Snow
11:14 PM 26.6 °F 20.0 °F 19.4 °F 74% 30.03 in 10.0 mi NW 5.8 mph - N/A Snow Light Snow
11:34 PM 24.8 °F 16.1 °F 19.4 °F 80% 30.03 in 10.0 mi NW 8.1 mph - N/A Snow Light Snow
11:53 PM 24.8 °F 14.6 °F 19.4 °F 80% 30.03 in 10.0 mi NW 10.4 mph 16.1 mph N/A   Overcast